Location: ??
(34.9170°N, 135.5016°E)
Time: 22:46:22
(UTC+00:00)

RS-15 - Pass Details

Date: 29 April 2021
Orbit: 1888 x 2157 km, 64.8° (Epoch: 12 May)

Event Time Altitude Azimuth Distance (km) Brightness Sun altitude
Rises 16:18:59 0° 331° (NNW) 5,544 10.8 -36.6°
Reaches altitude 10° 16:22:30 10° 337° (NNW) 4,572 10.3 -36.3°
Maximum altitude 16:34:18 56° 54° (NE) 2,452 8.6 -35.1°
Drops below altitude 10° 16:46:17 10° 131° (SE) 4,665 9.9 -33.8°
Sets 16:49:52 0° 135° (SE) 5,662 10.4 -33.4°
